Location: Ariel
(45.9570°N, 122.5700°W)
Time: 20:13:23
(UTC-07:00)

Vanguard 3 - Pass Details

Date: 03 September 2019
Orbit: 508 x 3263 km, 33.4° (Epoch: 19 September)

Event Time Altitude Azimuth Distance (km) Brightness Sun altitude
Rises 11:33:10 0° 198° (SSW) 7,216 12.3 46.2°
Reaches altitude 10° 11:40:12 10° 184° (S) 6,140 12.3 46.9°
Maximum altitude 11:51:55 20° 146° (SE) 4,863 12.4 48.0°
Drops below altitude 10° 12:01:32 10° 107° (ESE) 4,992 11.7 48.8°
Sets 12:06:15 0° 92° (E) 5,552 11.6 49.1°
